Hourly Weather Rudodimo

Today, 15 April, Thursday

Time Temperature Precipitation Wind Pressure Humidity
00:00 +9°C° 0 mm 2 mps 742 mmHg 84%
01:00 +9°C° 0 mm 3 mps 742 mmHg 86%
02:00 +9°C° 0 mm 3 mps 742 mmHg 89%
03:00 +9°C° 0.6 mm 3 mps 741 mmHg 91%
04:00 +8°C° 0.6 mm 4 mps 741 mmHg 94%
05:00 +7°C° 0.6 mm 4 mps 741 mmHg 96%
06:00 +8°C° 0.7 mm 4 mps 741 mmHg 95%
07:00 +8°C° 0.7 mm 4 mps 741 mmHg 94%
08:00 +8°C° 0.7 mm 5 mps 741 mmHg 92%
09:00 +9°C° 0.1 mm 5 mps 740 mmHg 85%
10:00 +12°C° 0.1 mm 5 mps 740 mmHg 78%
11:00 +13°C° 0.1 mm 5 mps 740 mmHg 71%
12:00 +13°C° 0.4 mm 6 mps 740 mmHg 71%
13:00 +13°C° 0.4 mm 6 mps 740 mmHg 71%
14:00 +13°C° 0.4 mm 6 mps 740 mmHg 71%
15:00 +13°C° 0.2 mm 6 mps 739 mmHg 74%
16:00 +12°C° 0.2 mm 5 mps 739 mmHg 76%
17:00 +12°C° 0.2 mm 5 mps 739 mmHg 79%
18:00 +12°C° 0.7 mm 5 mps 739 mmHg 82%
19:00 +10°C° 0.7 mm 5 mps 739 mmHg 85%
20:00 +9°C° 0.7 mm 5 mps 739 mmHg 89%
21:00 +10°C° 0.1 mm 4 mps 739 mmHg 90%
22:00 +8°C° 0.1 mm 4 mps 739 mmHg 91%
23:00 +9°C° 0.1 mm 3 mps 740 mmHg 92%

Tomorrow, 16 April, Friday

Time Temperature Precipitation Wind Pressure Humidity
00:00 +9°C° 0 mm 3 mps 740 mmHg 92%
01:00 +8°C° 0 mm 3 mps 740 mmHg 93%
02:00 +8°C° 0 mm 3 mps 740 mmHg 93%
03:00 +8°C° 0.1 mm 3 mps 740 mmHg 93%
04:00 +8°C° 0.1 mm 3 mps 740 mmHg 93%
05:00 +6°C° 0.1 mm 4 mps 740 mmHg 93%
06:00 +7°C° 0.1 mm 5 mps 740 mmHg 89%
07:00 +9°C° 0.1 mm 6 mps 740 mmHg 84%
08:00 +10°C° 0.1 mm 6 mps 741 mmHg 79%
09:00 +11°C° 0 mm 7 mps 741 mmHg 71%
10:00 +11°C° 0 mm 7 mps 741 mmHg 64%
11:00 +12°C° 0 mm 7 mps 741 mmHg 56%
12:00 +14°C° 0 mm 7 mps 742 mmHg 54%
13:00 +14°C° 0 mm 6 mps 742 mmHg 53%
14:00 +14°C° 0 mm 6 mps 742 mmHg 51%
15:00 +14°C° 0.2 mm 6 mps 742 mmHg 54%
16:00 +14°C° 0.2 mm 5 mps 742 mmHg 57%
17:00 +13°C° 0.2 mm 5 mps 742 mmHg 60%
18:00 +12°C° 0.2 mm 4 mps 742 mmHg 67%
19:00 +10°C° 0.2 mm 3 mps 742 mmHg 73%
20:00 +9°C° 0.2 mm 3 mps 743 mmHg 79%
21:00 +9°C° 0 mm 3 mps 743 mmHg 81%
22:00 +8°C° 0 mm 3 mps 743 mmHg 83%
23:00 +8°C° 0 mm 2 mps 743 mmHg 85%

Day after tomorrow, 17 April, Saturday

Time Temperature Precipitation Wind Pressure Humidity
00:00 +7°C° 0 mm 2 mps 743 mmHg 86%
01:00 +7°C° 0 mm 2 mps 744 mmHg 88%
02:00 +6°C° 0 mm 2 mps 744 mmHg 89%
03:00 +6°C° 0 mm 2 mps 744 mmHg 90%
04:00 +6°C° 0 mm 2 mps 744 mmHg 90%
05:00 +5°C° 0 mm 2 mps 744 mmHg 91%
06:00 +7°C° 0 mm 2 mps 745 mmHg 86%
07:00 +8°C° 0 mm 3 mps 745 mmHg 81%
08:00 +9°C° 0 mm 3 mps 745 mmHg 76%
09:00 +10°C° 0 mm 3 mps 746 mmHg 73%
10:00 +11°C° 0 mm 4 mps 746 mmHg 70%
11:00 +12°C° 0 mm 4 mps 746 mmHg 68%
12:00 +12°C° 0.2 mm 4 mps 746 mmHg 71%
13:00 +11°C° 0.2 mm 4 mps 746 mmHg 75%
14:00 +10°C° 0.2 mm 5 mps 746 mmHg 79%
15:00 +10°C° 0.9 mm 5 mps 745 mmHg 82%
16:00 +10°C° 0.9 mm 4 mps 745 mmHg 86%
17:00 +10°C° 0.9 mm 4 mps 745 mmHg 89%
18:00 +9°C° 0.3 mm 5 mps 745 mmHg 87%
19:00 +9°C° 0.3 mm 5 mps 745 mmHg 85%
20:00 +9°C° 0.3 mm 6 mps 745 mmHg 83%
21:00 +9°C° 0 mm 6 mps 745 mmHg 82%
22:00 +8°C° 0 mm 6 mps 745 mmHg 81%
23:00 +8°C° 0 mm 6 mps 745 mmHg 80%

18 April, Sunday

Time Temperature Precipitation Wind Pressure Humidity
00:00 +7°C° 0 mm 6 mps 745 mmHg 81%
01:00 +7°C° 0 mm 6 mps 745 mmHg 82%
02:00 +5°C° 0 mm 6 mps 745 mmHg 84%
03:00 +5°C° 0 mm 6 mps 745 mmHg 84%
04:00 +5°C° 0 mm 5 mps 745 mmHg 85%
05:00 +5°C° 0 mm 5 mps 745 mmHg 85%
06:00 +5°C° 0 mm 5 mps 745 mmHg 82%
07:00 +6°C° 0 mm 5 mps 746 mmHg 78%
08:00 +7°C° 0 mm 5 mps 746 mmHg 74%
09:00 +8°C° 0 mm 6 mps 746 mmHg 71%
10:00 +10°C° 0 mm 6 mps 746 mmHg 67%
11:00 +11°C° 0 mm 6 mps 746 mmHg 63%
12:00 +11°C° 0 mm 6 mps 746 mmHg 61%
13:00 +13°C° 0 mm 6 mps 746 mmHg 58%
14:00 +13°C° 0 mm 6 mps 746 mmHg 56%
15:00 +13°C° 0 mm 6 mps 747 mmHg 58%
16:00 +13°C° 0 mm 6 mps 747 mmHg 59%
17:00 +12°C° 0 mm 5 mps 747 mmHg 61%
18:00 +11°C° 0 mm 4 mps 747 mmHg 65%
19:00 +10°C° 0 mm 3 mps 747 mmHg 69%
20:00 +9°C° 0 mm 2 mps 748 mmHg 73%
21:00 +9°C° 0 mm 2 mps 748 mmHg 75%
22:00 +8°C° 0 mm 2 mps 748 mmHg 77%
23:00 +8°C° 0 mm 2 mps 748 mmHg 79%

19 April, Monday

Time Temperature Precipitation Wind Pressure Humidity
00:00 +8°C° 0 mm 2 mps 748 mmHg 78%
01:00 +8°C° 0 mm 2 mps 748 mmHg 78%
02:00 +8°C° 0 mm 2 mps 748 mmHg 77%
03:00 +7°C° 0 mm 3 mps 748 mmHg 80%
04:00 +5°C° 0 mm 3 mps 748 mmHg 83%
05:00 +4°C° 0 mm 3 mps 748 mmHg 85%
06:00 +5°C° 0 mm 4 mps 748 mmHg 81%
07:00 +6°C° 0 mm 5 mps 748 mmHg 76%
08:00 +7°C° 0 mm 6 mps 748 mmHg 72%
09:00 +9°C° 0 mm 5 mps 748 mmHg 66%
10:00 +10°C° 0 mm 5 mps 748 mmHg 60%
11:00 +12°C° 0 mm 5 mps 748 mmHg 54%
12:00 +12°C° 0 mm 5 mps 748 mmHg 53%
13:00 +12°C° 0 mm 5 mps 748 mmHg 51%
14:00 +12°C° 0 mm 5 mps 748 mmHg 50%
15:00 +12°C° 0 mm 5 mps 748 mmHg 53%
16:00 +12°C° 0 mm 5 mps 748 mmHg 56%
17:00 +10°C° 0 mm 5 mps 748 mmHg 59%
18:00 +9°C° 0 mm 5 mps 748 mmHg 63%
19:00 +9°C° 0 mm 5 mps 748 mmHg 67%
20:00 +8°C° 0 mm 5 mps 748 mmHg 70%
21:00 +7°C° 0 mm 4 mps 747 mmHg 73%
22:00 +7°C° 0 mm 4 mps 747 mmHg 75%
23:00 +6°C° 0 mm 4 mps 747 mmHg 77%

20 April, Tuesday

Time Temperature Precipitation Wind Pressure Humidity
00:00 +6°C° 0 mm 4 mps 747 mmHg 80%
01:00 +5°C° 0 mm 4 mps 747 mmHg 83%
02:00 +4°C° 0 mm 4 mps 747 mmHg 85%
03:00 +4°C° 0 mm 4 mps 747 mmHg 83%
04:00 +5°C° 0 mm 5 mps 747 mmHg 81%
05:00 +5°C° 0 mm 5 mps 747 mmHg 79%
06:00 +4°C° 0 mm 6 mps 746 mmHg 73%
07:00 +5°C° 0 mm 6 mps 746 mmHg 67%
08:00 +5°C° 0 mm 7 mps 746 mmHg 61%
09:00 +6°C° 0 mm 7 mps 746 mmHg 56%
10:00 +6°C° 0 mm 8 mps 745 mmHg 51%
11:00 +7°C° 0 mm 8 mps 744 mmHg 45%
12:00 +7°C° 0 mm 8 mps 744 mmHg 44%
13:00 +9°C° 0 mm 8 mps 744 mmHg 43%
14:00 +9°C° 0 mm 8 mps 744 mmHg 41%
15:00 +9°C° 0 mm 8 mps 743 mmHg 47%
16:00 +9°C° 0 mm 7 mps 743 mmHg 52%
17:00 +8°C° 0 mm 7 mps 743 mmHg 58%
18:00 +6°C° 0 mm 7 mps 742 mmHg 59%
19:00 +7°C° 0 mm 6 mps 742 mmHg 61%
20:00 +5°C° 0 mm 6 mps 742 mmHg 63%
21:00 +4°C° 0 mm 6 mps 741 mmHg 65%
22:00 +4°C° 0 mm 6 mps 741 mmHg 67%
23:00 +3°C° 0 mm 6 mps 740 mmHg 70%
Show more